Flag for Netherlands Weather past 2 weeks in Leiden, Netherlands

Now
52 °F

Thunderstorms. Partly sunny.


Feels Like: 49 °F
Forecast: 51 / 59 °F
Wind: 8 mph from West

Location: Rotterdam Zestienhoven Airport

Current Time: May 30, 2015 at 8:45:34 AM

Latest Report: May 30, 2015 at 7:55 AM


Visibility: N/A

Pressure: 29.83 "Hg

Humidity: 72%

Dew point: 43 °F

Location of LeidenLocation

Historic Weather in Leiden — Graph

°F

Leiden temperature yesterday

Maximum temperature yesterday: 59 °F (at 3:25 PM)
Minimum temperature yesterday: 46 °F (at 11:55 PM)
Average temperature yesterday: 54 °F

Past Weeks' High & Low Weather Summary

 TemperatureHumidityPressure
High66 °F (May 22, 1:25 PM)100% (May 16, 9:55 AM)30.33 "Hg (May 16, 9:55 AM)
Low37 °F (May 24, 5:25 AM)37% (May 24, 4:25 PM)29.59 "Hg (May 18, 6:55 PM)
Average54 °F74%30.05 "Hg
* Reported May 15 7:25 AM — May 30 7:25 AM, Leiden, Weather by CustomWeather, © 2015

Note: Actual official high and low records may vary slightly from our data, if they occured in-between our weather recording intervals... More about our weather records

Advertising

Leiden weather history for previous 24 hours

 ConditionsComfort  
Time TempWeatherWind HumidityBarometerVisibility
7:25 AM
Sat, May 30
52 °FPassing clouds.9 mph72%29.83 "HgN/A
6:55 AM50 °FScattered clouds.10 mph71%29.83 "HgN/A
6:25 AM48 °FPassing clouds.8 mph76%29.83 "HgN/A
5:55 AM46 °FPassing clouds.8 mph82%29.80 "HgN/A
5:25 AM46 °FPassing clouds.9 mph82%29.80 "HgN/A
4:55 AM45 °FClear.7 mph87%29.80 "HgN/A
4:25 AM46 °FCool.7 mph82%29.80 "HgN/A
3:55 AM46 °FCool.8 mph82%29.80 "HgN/A
3:25 AM46 °FCool.7 mph82%29.77 "HgN/A
2:55 AM45 °FClear.6 mph81%29.77 "HgN/A
2:25 AM45 °FClear.6 mph87%29.77 "HgN/A
1:55 AM46 °FCool.7 mph87%29.77 "HgN/A
1:25 AM46 °FPassing clouds.6 mph87%29.77 "HgN/A
12:55 AM46 °FCool.6 mph93%29.77 "HgN/A
12:25 AM45 °FPassing clouds.8 mph93%29.74 "HgN/A
11:55 PM
Fri, May 29
46 °FCool.6 mph87%29.74 "HgN/A
11:25 PM48 °FPassing clouds.7 mph87%29.74 "HgN/A
10:25 PM52 °FBroken clouds.12 mph77%29.71 "HgN/A
9:55 PM52 °FPartly sunny.14 mph82%29.71 "HgN/A
9:25 PM52 °FLight rain. Broken clouds.10 mph88%29.71 "HgN/A
8:55 PM52 °FDrizzle. Partly sunny.18 mph82%29.68 "HgN/A
8:25 PM52 °FDrizzle. Cloudy.18 mph82%29.68 "HgN/A
7:55 PM52 °FPartly sunny.20 mph82%29.68 "HgN/A
7:25 PM54 °FPassing clouds.23 mph77%29.68 "HgN/A
6:55 PM54 °FScattered clouds.20 mph72%29.68 "HgN/A
6:25 PM54 °FDrizzle. Broken clouds.22 mph77%29.68 "HgN/A
5:55 PM55 °FBroken clouds.26 mph77%29.68 "HgN/A
5:25 PM55 °FLight rain. Mostly cloudy.17 mph77%29.68 "HgN/A
4:55 PM55 °FLight rain. Mostly cloudy.22 mph77%29.68 "HgN/A
4:25 PM55 °FDrizzle. Mostly cloudy.22 mph67%29.71 "HgN/A
3:55 PM57 °FDrizzle. Overcast.21 mph59%29.71 "HgN/A
3:25 PM59 °FPassing clouds.17 mph59%29.71 "HgN/A
2:55 PM55 °FMostly cloudy.17 mph67%29.74 "HgN/A
2:25 PM57 °FBroken clouds.17 mph63%29.74 "HgN/A
1:55 PM57 °FPartly sunny.13 mph63%29.74 "HgN/A
1:25 PM57 °FPassing clouds.18 mph59%29.74 "HgN/A
12:55 PM57 °FBroken clouds.20 mph63%29.77 "HgN/A
12:25 PM57 °FPassing clouds.18 mph63%29.77 "HgN/A
11:55 AM57 °FBroken clouds.16 mph63%29.77 "HgN/A
11:25 AM55 °FCloudy.14 mph67%29.77 "HgN/A
10:55 AM57 °FPassing clouds.16 mph72%29.80 "HgN/A
10:25 AM57 °FBroken clouds.16 mph72%29.80 "HgN/A
9:55 AM55 °FPartly sunny.13 mph82%29.80 "HgN/A
9:25 AM55 °FPartly sunny.12 mph82%29.80 "HgN/A
8:55 AM54 °FBroken clouds.10 mph88%29.80 "Hg6 mi
8:25 AM54 °FScattered clouds.10 mph82%29.83 "HgN/A
Weather by CustomWeather, © 2015

See weather overviewHow to use our weather pages